This is the latest recevied weather packets stored in our database for station/object KB2EAR-13. If no packets are shown the sender has not sent any weather packets the latest 10 day(s).
| Time | Temp. | Humidity | Pressure | Rain* | Wind** | Luminosity | Snow |
|---|---|---|---|---|---|---|---|
| 1777532116 | 8.89° C | 94% | 1008.8 hPa | 0.25 mm | - | - | - |
| 1777531816 | 8.89° C | 94% | 1009 hPa | 0.25 mm | - | - | - |
| 1777531516 | 8.89° C | 94% | 1008.8 hPa | 0.25 mm | - | - | - |
| 1777530916 | 8.89° C | 94% | 1009.1 hPa | 0.25 mm | - | - | - |
| 1777530616 | 8.89° C | 94% | 1009.2 hPa | 0.25 mm | - | - | - |
| 1777530316 | 8.89° C | 94% | 1009.2 hPa | 0.51 mm | - | - | - |
| 1777530016 | 8.89° C | 94% | 1009.3 hPa | 1.27 mm | - | - | - |
| 1777529716 | 8.89° C | 94% | 1009.3 hPa | 2.29 mm | - | - | - |
| 1777529416 | 8.89° C | 94% | 1009.3 hPa | 2.79 mm | - | - | - |
| 1777529116 | 8.89° C | 94% | 1009.5 hPa | 3.05 mm | - | - | - |
| 1777528816 | 8.89° C | 94% | 1009.5 hPa | 3.05 mm | - | - | - |
| 1777528516 | 8.89° C | 94% | 1009.6 hPa | 3.3 mm | - | - | - |
| 1777528216 | 8.89° C | 94% | 1009.6 hPa | 3.3 mm | - | - | - |
| 1777527616 | 8.89° C | 94% | 1009.6 hPa | 3.3 mm | - | - | - |
| 1777527316 | 8.89° C | 94% | 1009.4 hPa | 3.3 mm | - | - | - |
| 1777527016 | 8.89° C | 94% | 1009.5 hPa | 3.3 mm | - | - | - |
| 1777526716 | 8.89° C | 94% | 1009.8 hPa | 3.05 mm | - | - | - |
| 1777526416 | 8.89° C | 94% | 1010 hPa | 2.29 mm | - | - | - |
| 1777526118 | 8.89° C | 94% | 1009.8 hPa | 1.27 mm | - | - | - |
| 1777525818 | 8.89° C | 94% | 1010.1 hPa | 0.76 mm | - | - | - |
| 1777525518 | 8.89° C | 94% | 1010.1 hPa | 0.51 mm | - | - | - |
| 1777525218 | 8.89° C | 94% | 1010 hPa | 0.51 mm | - | - | - |
| 1777524918 | 8.89° C | 94% | 1010.3 hPa | 0.25 mm | - | - | - |
| 1777524618 | 8.89° C | 94% | 1010.4 hPa | 0.25 mm | - | - | - |
| 1777524318 | 8.89° C | 94% | 1010.4 hPa | 0.25 mm | - | - | - |
* Rain latest hour (hover to see other rain measurements)
** Current wind speed in m/s (hover to see current wind gust speed)